Powrót do katalogu

STARLINK-6168

AktywnyŁącznośćVLEO
NORAD 57369·PAYLOAD·🇺🇸 United States

Wystrzelony Jul 16, 2023 z Cape Canaveral Space Force Station

Loading…

Następne Przeloty (najbliższe 24 godziny)

TLE

ŚwieżeSource: CelesTrak SupGP

Epoka: Sep 15, 2026, 03:06 UTC

1 57369C 23099AT  26258.12965278  .00001344  00000+0  40365-4 0  2587
2 57369  43.0010 248.9026 0005650 118.8422 315.8125 15.33587387    19

Śledź STARLINK-6168 w czasie rzeczywistym z AllMySat

Download on the App Store